Find Starlink 3761

NORAD ID: 52262 Int'l Des: 2022-041 Owner: SPXS Country: US Constellation: starlink operational
LEOCIRCULAR

当前视图

正在加载3D地球...

About Starlink 3761

Starlink 3761 (NORAD 52262) is a starlink constellation satellite (v1.5) launched Apr 21, 2022 by SPXS of US. It operates in LEO, CIRCULAR orbit with a mass of 297.00 kg.

关于 Starlink 3761

正在加载描述...

即将过境

Passes for default location (London). Set your location on the main map for personalized predictions.

高度历史

Loading altitude history...

两行轨道根数

1 52262U 22041B 26193.57445903 .00000156 00000-0 27887-4 0 9992
2 52262 53.1600 268.1948 0001545 89.3501 270.7667 15.08826259233215
Epoch: Jul 12, 2026 • Age: 7 hours

当前状态

高度 545.2 km
远地点 / 近地点 N/A
速度 7.60 km/s
星下点 53.00°N, 126.3°E
发射日期 Apr 21, 2022
运行时间 4.2 years
类型 internet

技术详情

分类 Payload
质量 297.00 kg
干质量 275.00 kg
总质量 297.00 kg
长度 0.20 m
直径 2.80 m
跨度 9.00 m
形状 Box + pan
制造商 SPXS
平台类型 Starlink
阶段状态 In Orbit
所有者/国家 SPXS/US

Most Searched